TimeCDT,TemperatureF,Dew PointF,Humidity,Sea Level PressureIn,VisibilityMPH,Wind Direction,Wind SpeedMPH,Gust SpeedMPH,PrecipitationIn,Events,Conditions,WindDirDegrees,DateUTC
12:53 AM,33.1,26.1,75,30.03,10.0,WNW,3.5,-,N/A,,Clear,300,2012-10-08 05:53:00
1:53 AM,32.0,25.0,75,30.02,10.0,WNW,8.1,-,N/A,,Clear,300,2012-10-08 06:53:00
2:53 AM,32.0,24.1,73,30.01,10.0,West,6.9,-,N/A,,Clear,280,2012-10-08 07:53:00
3:53 AM,28.9,23.0,78,29.99,10.0,NW,3.5,-,N/A,,Clear,310,2012-10-08 08:53:00
4:53 AM,27.0,23.0,85,29.98,10.0,NW,3.5,-,N/A,,Clear,310,2012-10-08 09:53:00
5:53 AM,28.0,24.1,85,29.97,10.0,NW,3.5,-,N/A,,Clear,310,2012-10-08 10:53:00
6:53 AM,27.0,21.9,81,29.97,10.0,Calm,Calm,-,N/A,,Clear,0,2012-10-08 11:53:00
7:53 AM,30.9,24.1,76,29.97,10.0,Calm,Calm,-,N/A,,Clear,0,2012-10-08 12:53:00
8:53 AM,35.1,28.0,76,29.97,10.0,West,4.6,-,N/A,,Clear,260,2012-10-08 13:53:00
9:53 AM,42.1,28.9,60,29.97,10.0,West,10.4,-,N/A,,Clear,270,2012-10-08 14:53:00
10:53 AM,51.1,28.9,43,29.94,10.0,West,10.4,-,N/A,,Clear,270,2012-10-08 15:53:00
11:53 AM,57.0,30.0,36,29.91,10.0,WNW,6.9,-,N/A,,Clear,300,2012-10-08 16:53:00
12:53 PM,64.9,30.9,28,29.88,10.0,WNW,6.9,-,N/A,,Clear,290,2012-10-08 17:53:00
1:53 PM,69.1,30.0,23,29.84,10.0,West,9.2,-,N/A,,Clear,280,2012-10-08 18:53:00
2:53 PM,72.0,28.0,20,29.82,10.0,West,12.7,18.4,N/A,,Clear,280,2012-10-08 19:53:00
3:53 PM,72.0,26.1,18,29.80,10.0,West,10.4,-,N/A,,Clear,270,2012-10-08 20:53:00
4:53 PM,71.1,27.0,19,29.80,10.0,WNW,9.2,-,N/A,,Clear,290,2012-10-08 21:53:00
5:53 PM,69.1,26.1,20,29.80,10.0,WNW,8.1,-,N/A,,Clear,290,2012-10-08 22:53:00
6:53 PM,64.0,30.9,29,29.81,10.0,Calm,Calm,-,N/A,,Clear,0,2012-10-08 23:53:00
7:53 PM,48.9,33.1,54,29.84,10.0,Calm,Calm,-,N/A,,Clear,0,2012-10-09 00:53:00
8:53 PM,46.9,30.9,54,29.85,10.0,Calm,Calm,-,N/A,,Clear,0,2012-10-09 01:53:00
9:53 PM,44.1,30.0,58,29.86,10.0,Calm,Calm,-,N/A,,Clear,0,2012-10-09 02:53:00
10:53 PM,46.9,30.0,52,29.85,10.0,NE,10.4,-,N/A,,Clear,50,2012-10-09 03:53:00
11:53 PM,43.0,30.9,62,29.86,10.0,ENE,3.5,-,N/A,,Clear,70,2012-10-09 04:53:00